Regional Weather Roundup
Issued by NWS Little Rock, AR

Home | Current Version | Previous Version | Graphics & Text | Print | Product List | Glossary On
Versions: 1 2 3 4 5 6 7 8 9 10 11 12 13 14 15 16 17 18 19 20 21 22 23 24 25 26 27 28 29 30 31 32 33 34 35 36 37 38 39 40 41 42 43 44 45 46 47 48 49 50
000
ASUS44 KLZK 172005
RWRLZK

WEATHER ROUNDUP FOR ARKANSAS
NATIONAL WEATHER SERVICE LITTLE ROCK AR
300 PM CDT THU AUG 17 2017

NOTE: "FAIR" INDICATES FEW OR NO CLOUDS BELOW 12,000 FEET WITH NO
SIGNIFICANT WEATHER AND/OR OBSTRUCTIONS TO VISIBILITY.

ARZ001-003-010-029-172100-
NORTHWEST ARKANSAS

CITY           SKY/WX    TMP DP  RH WIND       PRES   REMARKS
FAYETTEVILLE   PTSUNNY   81  71  71 SW6       30.03F HX  85
FORT SMITH     CLOUDY    85  72  65 NW10      30.00F HX  91
HARRISON       CLOUDY    81  69  67 W8        30.01F
BENTONVILLE    CLOUDY    82  70  65 W12       30.03F HX  86
ROGERS         MOSUNNY   82  71  69 SW12      30.03F HX  86
SILOAM SPGS    CLOUDY    82  70  65 SW9       30.02F HX  86
HIGHFILL       CLOUDY    83  71  67 SW9       30.03F HX  87
SPRINGDALE     MOSUNNY   82  70  65 W7G14     30.05F HX  86
$$

ARZ004-005-016-172100-
NORTH CENTRAL ARKANSAS

CITY           SKY/WX    TMP DP  RH WIND       PRES   REMARKS
BATESVILLE     CLOUDY    82  72  69 W5        29.95S HX  87
FLIPPIN        PTSUNNY   84  66  54 NW9       29.95F HX  86
MTN HOME       CLOUDY    82  71  69 NW9       29.97  HX  86
$$

ARZ040-041-172100-
WEST CENTRAL ARKANSAS

CITY           SKY/WX    TMP DP  RH WIND       PRES   REMARKS
MENA           CLOUDY    82  77  83 W6        30.04F HX  91
MOUNT IDA      PTSUNNY   85  67  54 VRB7      30.00F HX  87
$$

ARZ009-017-025-026-028-172100-
NORTHEAST ARKANSAS

CITY           SKY/WX    TMP DP  RH WIND       PRES   REMARKS
JONESBORO      PTSUNNY   84  76  76 W12       29.92F HX  93
NEWPORT        PTSUNNY   85  74  69 SW14      29.94F HX  92
WALNUT RIDGE   CLOUDY    82  73  74 SW10      29.93S HX  88
NW BLYTHEVILLE PTSUNNY   86  72  62 MISG      29.92F HX  92
$$

ARZ022-023-033-042-044-172100-
CENTRAL ARKANSAS

CITY           SKY/WX    TMP DP  RH WIND       PRES   REMARKS
LITTLE ROCK    CLOUDY    85  72  65 SW13      29.97F HX  91
N LITTLE ROCK    N/A     84  74  73 W5        29.97F HX  91
JACKSONVILLE   MOSUNNY   86  76  70 SW12      29.96F HX  96
CONWAY           N/A     86  73  66 W12       29.95F HX  93
HOT SPRINGS    MOSUNNY   86  74  67 SW8       29.99F HX  94
RUSSELLVILLE   PTSUNNY   83  71  67 W9G20     29.98S HX  87
CLINTON        PTSUNNY   84  72  65 W7        29.96F HX  89
$$

ARZ036-172100-
EAST ARKANSAS

CITY           SKY/WX    TMP DP  RH WIND       PRES   REMARKS
WEST MEMPHIS   CLOUDY    82  79  90 CALM      29.93F HX  92
$$

ARZ050-053-066-070-073-172100-
SOUTHWEST ARKANSAS

CITY           SKY/WX    TMP DP  RH WIND       PRES   REMARKS
ARKADELPHIA    FAIR      82  73  74 SW10      30.00F HX  87
CAMDEN         MOSUNNY   84  70  61 W9        30.00F HX  88
TEXARKANA      PTSUNNY   78  71  79 W8        30.03F
EL DORADO      CLOUDY    84  71  65 W8        30.01F HX  89
DE QUEEN       PTSUNNY   79  74  84 VRB3      30.01F
$$

ARZ056-057-069-172100-
SOUTHEAST ARKANSAS

CITY           SKY/WX    TMP DP  RH WIND       PRES   REMARKS
PINE BLUFF     MOSUNNY   85  70  60 W12       29.98F HX  89
MONTICELLO     CLOUDY    85  72  65 SW9       29.99F HX  91

$$





USA.gov is the U.S. government's official web portal to all federal, state and local government web resources and services.